Location: *
(32.8140°S, 174.6161°E)
Time: 21:21:32
(UTC+00:00)

CZ-2C R/B - Pass Details

Date: 10 December 2019
Orbit: 668 x 784 km, 98.1° (Epoch: 24 January)

Event Time Altitude Azimuth Distance (km) Brightness Sun altitude
Rises 16:16:07 0° 2° (N) 3,046 5.3 -9.8°
Reaches altitude 10° 16:18:21 10° 357° (N) 2,152 4.5 -9.4°
Maximum altitude 16:22:58 53° 280° (W) 877 2.5 -8.6°
Drops below altitude 10° 16:27:48 10° 203° (SSW) 2,253 5.1 -7.8°
Sets 16:30:11 0° 198° (SSW) 3,202 5.9 -7.4°
